Voltar ao catálogo

STARLINK-34343

AtivoComunicaçõesSSO
NORAD 64157·PAYLOAD·🇺🇸 United States

Lançado May 27, 2025 de Vandenberg Space Force Base

Loading…

Próximas Passagens (próximas 24 horas)

TLE

AtualizadoSource: CelesTrak SupGP

Época: Sep 15, 2026, 02:49 UTC

1 64157C 25112M   26258.11784722  .00048964  00000+0  32046-2 0  2584
2 64157  97.6010 308.1628 0013760 331.7145  88.7442 15.07741399    17

Acompanhe STARLINK-34343 em tempo real com AllMySat

Download on the App Store